DW6005 Weather Reports


time (UTC)temp
F
wind
direction
speed
knots
gust
knots
rain 1hr
in
rain 24hr
in
rain mn
in
humidity
%
barometer
mb
20260507141549 63 75 0.9 6.1 0.01 0.02 0.02 83 1010.2
20260507140047 64 188 0.9 7.0 0.01 0.02 0.02 83 1010.2
20260507134548 64 174 1.7 6.1 0.01 0.02 0.02 82 1010.2
20260507133145 64 250 0.9 5.2 0.01 0.02 0.02 82 1010.3
20260507131543 65 202 2.6 8.7 0.00 0.01 0.01 79 1010.2
20260507130043 66 170 1.7 7.0 0.00 0.01 0.01 77 1010.3
20260507124547 66 138 0.0 2.6 0.00 0.01 0.01 77 1010.4
20260507123043 66 138 0.0 2.6 0.00 0.01 0.01 77 1010.6
20260507121542 66 117 1.7 7.8 0.00 0.01 0.01 75 1010.8
20260507120040 66 128 3.5 10.4 0.00 0.01 0.01 73 1010.8
20260507114556 67 132 4.3 8.7 0.00 0.01 0.01 72 1010.8
20260507113101 66 98 2.6 8.7 0.00 0.01 0.01 72 1010.8
20260507111541 66 115 7.0 11.3 0.00 0.01 0.01 72 1011.0
20260507110033 66 111 6.1 10.4 0.00 0.01 0.01 73 1011.1
20260507104539 65 126 5.2 10.4 0.00 0.01 0.01 74 1011.4
20260507103131 66 109 5.2 9.6 0.00 0.01 0.01 73 1011.3
20260507101530 66 132 6.1 13.9 0.00 0.01 0.01 71 1011.2
20260507100029 66 107 6.1 12.2 0.00 0.01 0.01 71 1011.0
20260507094528 67 111 6.1 11.3 0.01 0.01 0.01 72 1011.1
20260507093028 66 111 4.3 12.2 0.01 0.01 0.01 74 1011.2
20260507091523 65 132 3.5 7.8 0.01 0.01 0.01 76 1011.4
20260507090019 64 105 6.1 11.3 0.01 0.01 0.01 76 1011.3
20260507084515 64 111 0.9 3.5 0.00 0.00 0.00 79 1011.3
20260507083015 64 41 0.0 2.6 0.00 0.00 0.00 79 1011.4
20260507081513 63 40 0.0 1.7 0.00 0.00 0.00 79 1011.4
20260507080013 63 40 0.0 2.6 0.00 0.00 0.00 79 1011.5
20260507074510 63 40 0.0 2.6 0.00 0.00 0.00 78 1011.4
20260507073008 63 40 0.9 3.5 0.00 0.00 0.00 77 1011.4
20260507071506 63 36 1.7 4.3 0.00 0.00 0.00 77 1011.2
20260507070012 62 28 0.0 4.3 0.00 0.00 0.00 78 1011.0
20260507064503 62 47 0.9 3.5 0.00 0.00 0.00 78 1011.1
20260507063002 61 84 0.0 3.5 0.00 0.00 0.00 79 1010.9
20260507061600 60 84 0.0 1.7 0.00 0.00 0.00 80 1010.9
20260507054557 59 86 0.0 1.7 0.00 0.00 0.00 81 1010.6
20260507053051 59 101 0.0 0.0 0.00 0.00 0.00 82 1010.8
20260507051548 58 101 0.0 0.9 0.00 0.00 0.00 82 1010.8
20260507050046 58 98 0.0 0.9 0.00 0.00 0.00 82 1010.5
20260507044555 59 98 0.0 0.0 0.00 0.00 0.00 81 1010.5
20260507043059 59 98 0.0 0.9 0.00 0.00 0.00 82 1010.5
20260507041542 59 98 0.0 2.6 0.00 0.00 0.00 83 1010.5
20260507040042 59 98 0.0 0.0 0.00 0.00 0.00 84 1010.5
20260507034542 59 98 0.0 0.0 0.00 0.00 0.00 84 1010.4
20260507033040 59 98 0.0 0.0 0.00 0.00 0.00 84 1010.4
20260507031545 59 98 0.0 0.0 0.00 0.00 0.00 84 1010.4
20260507030038 60 98 0.0 0.0 0.00 0.00 0.00 84 1010.4
20260507024536 60 98 0.0 0.0 0.00 0.00 0.00 83 1010.4
20260507023035 60 98 0.0 0.0 0.00 0.00 0.00 84 1010.4
20260507021537 60 98 0.0 0.0 0.00 0.00 0.00 83 1010.5
20260507020046 60 98 0.0 0.9 0.00 0.00 0.00 83 1010.5
20260507014536 61 98 0.0 0.9 0.00 0.00 0.00 83 1010.7
20260507013029 61 98 0.0 0.9 0.00 0.00 0.00 82 1010.8
20260507011540 61 98 0.0 1.7 0.00 0.00 0.00 82 1010.8
20260507010034 61 98 0.0 1.7 0.00 0.00 0.00 82 1010.8
20260507004525 61 98 0.0 0.0 0.00 0.00 0.00 82 1010.8
20260507003024 62 98 0.0 2.6 0.00 0.00 0.00 82 1010.8
20260507001548 62 98 0.0 1.7 0.00 0.00 0.00 82 1011.0
20260507000024 62 98 0.0 2.6 0.00 0.00 0.00 82 1011.1
20260506234519 62 98 0.0 2.6 0.00 0.00 0.00 82 1011.2
20260506233019 62 99 0.0 1.7 0.00 0.00 0.00 82 1011.4
20260506231518 62 99 0.0 1.7 0.00 0.00 0.00 82 1011.3
20260506230016 62 99 0.0 1.7 0.00 0.00 0.00 82 1011.4
20260506224516 62 99 0.0 1.7 0.00 0.00 0.00 82 1011.4
20260506223014 62 99 0.0 2.6 0.00 0.00 0.00 83 1011.4
20260506221515 62 99 0.0 1.7 0.00 0.00 0.00 83 1011.4
20260506220011 62 96 0.9 3.5 0.00 0.00 0.00 83 1011.4
20260506214510 62 96 0.9 3.5 0.00 0.00 0.00 83 1011.7
20260506213010 63 116 1.7 6.1 0.00 0.00 0.00 83 1011.8
20260506211509 63 117 0.9 6.1 0.00 0.00 0.00 83 1011.7
20260506210009 63 108 2.6 7.0 0.00 0.00 0.00 82 1011.6
20260506204506 63 111 3.5 7.0 0.00 0.00 0.00 82 1011.6
20260506203009 63 136 3.5 7.8 0.00 0.00 0.00 82 1011.5
20260506201504 63 98 2.6 6.1 0.00 0.00 0.00 81 1011.4
20260506200001 63 130 3.5 7.0 0.00 0.00 0.00 80 1010.9
20260506194503 64 109 2.6 7.8 0.00 0.00 0.00 78 1010.8
20260506193107 64 101 3.5 7.8 0.00 0.00 0.00 77 1010.7
20260506191600 65 108 4.3 9.6 0.00 0.00 0.00 76 1010.5
20260506184558 65 120 4.3 11.3 0.00 0.00 0.00 74 1010.3
20260506183106 66 84 4.3 8.7 0.00 0.00 0.00 73 1010.2
20260506181603 66 109 7.0 11.3 0.00 0.00 0.00 72 1010.0
20260506180056 66 119 4.3 13.0 0.00 0.00 0.00 72 1009.9
20260506174557 66 92 7.0 12.2 0.00 0.00 0.00 71 1009.9
20260506173104 67 105 7.8 13.9 0.00 0.00 0.00 69 1009.8
20260506171555 67 132 7.8 13.9 0.00 0.00 0.00 68 1009.7
20260506170104 67 124 7.0 12.2 0.00 0.00 0.00 68 1009.6
20260506164606 67 119 7.0 12.2 0.00 0.00 0.00 66 1009.7
20260506163059 68 93 7.0 13.0 0.00 0.00 0.00 68 1009.7
20260506161553 68 119 6.1 12.2 0.00 0.00 0.00 68 1009.6
20260506160056 68 104 4.3 12.2 0.00 0.00 0.00 69 1009.4
20260506154553 68 101 7.0 14.8 0.00 0.00 0.00 69 1009.4
20260506153048 69 85 8.7 16.5 0.00 0.00 0.00 68 1009.4
20260506151547 70 96 6.1 13.9 0.00 0.00 0.00 67 1009.4
20260506150059 69 119 7.8 15.6 0.00 0.00 0.00 67 1009.4
20260506144545 70 130 9.6 14.8 0.00 0.00 0.00 67 1009.6
20260506143045 69 125 7.8 15.6 0.00 0.00 0.00 68 1009.4